Lachezar Bojinov

Olheiro - Ludogorets
3 Fev 2028
Quinta-feira
Processo

Personalidade

Adaptabilidade (8) Ambição (2) Controvérsia (3) Lealdade (3) Pressão (1) Profissionalismo (6) Espírito Esportivo (6) Temperamento (10)

Perfil

Estilo de Treinamento Democrático
Licença Continental A
Determinação 11
Gestão de Pessoas 6
Motivação 6
Disciplina 7
Satisfação no Trabalho
100%
Fadiga
0%
Função Olheiro
Salário 71.8K p/s
Contrato 14.03.2030

Desempenho

Comportamento Bom
Eficácia do Treinamento
48%
Desenvolvimento do Jogador
30%
Prevenção de Lesões
60%
Implementação Tática
55%

Eventos Recentes

Participou de uma reunião de recrutamento agora
Participou de uma reunião de recrutamento agora
Participou de uma reunião de recrutamento agora
Recomendou um alvo de transferência agora
Participou de uma reunião de recrutamento 7d atrás
Recomendou um alvo de transferência 7d atrás
Recomendou um alvo de transferência 7d atrás
Participou de uma reunião de recrutamento 7d atrás

Monitorando agora

266
Jogador Clube Status Habilidade Confiança Observado Última observação Último voto
Stiven Palomeque Levski Relatório pronto 102 / 122 62% 1 31.01.2028 -
Davide Mastrantonio Latina Ativo 99 / 119 40% 1 08.01.2028 -
William Rovida Pro Patria Ativo 102 / 126 40% 1 08.01.2028 -
Todor Nedelev Botev Plovdiv Ativo 99 / 113 62% 1 07.01.2028 Aprovar
Yousef Salech Cardiff City Ativo 147 / 142 40% 6 01.01.2028 -
Bryan Ramírez FC Cincinnati Ativo 118 / 133 40% 3 31.12.2027 -
César Pérez Defensa y Justicia Ativo 131 / 129 40% 1 31.12.2027 -
Hwang Hee-Chan Wolverhampton Ativo 153 / 136 40% 7 29.12.2027 -
Zito Luvumbo Cagliari Ativo 123 / 139 40% 2 28.12.2027 -
Louis Munteanu DC United Ativo 124 / 131 40% 3 26.12.2027 -
Tyrese Campbell Sheffield United Ativo 127 / 142 40% 3 26.12.2027 -
Zeki Amdouni Burnley Ativo 139 / 141 40% 1 25.12.2027 -
Berna CSKA 1948 Ativo 129 / 113 40% 2 24.12.2027 -
William Osula Wrexham Ativo 123 / 131 40% 2 24.12.2027 -
Mathias Jørgensen Blackburn Rovers Ativo 130 / 132 40% 2 24.12.2027 -
Richarlison Brentford Ativo 135 / 155 40% 4 22.12.2027 -
Alexis Cuello San Lorenzo Ativo 118 / 131 40% 1 22.12.2027 -
Ez Abde Girona Ativo 170 / 156 40% 6 20.12.2027 -
Darwin Núñez Al-Hilal Ativo 143 / 163 40% 4 19.12.2027 -
Lewis Morgan SuperSport United Ativo 137 / 131 40% 11 18.12.2027 -
Lautaro Guzmán Lanús Ativo 115 / 125 40% 2 16.12.2027 -
Youssef En-Nesyri Al-Ittihad Ativo 146 / 136 40% 5 16.12.2027 -
Emiliano Álvarez Progreso Ativo 131 / 111 40% 2 16.12.2027 -
Santiago González Tigre Ativo 138 / 119 40% 1 14.12.2027 -
Alan Lescano Argentinos Juniors Ativo 147 / 117 40% 2 10.12.2027 -
Augusto Schott Talleres Ativo 123 / 129 40% 1 10.12.2027 -
Antony Alonso Deportivo Riestra Ativo 137 / 126 40% 1 09.12.2027 -
Afimico Pululu Rosario Central Perdido 139 / 139 40% 2 07.12.2027 -
Ammar Ramadan DAC Dunajska Streda Ativo 122 / 125 40% 2 06.12.2027 -
Luciano Gondou CSKA Moscow Ativo 140 / 122 40% 9 05.12.2027 -
Marcelino Moreno Lanús Ativo 136 / 141 40% 3 05.12.2027 -
Luciano Cosentino Wanderers Ativo 113 / 126 40% 2 05.12.2027 -
Richard Koné Queens Park Rangers Ativo 130 / 133 40% 5 04.12.2027 -
Rumarn Burrell Queens Park Rangers Ativo 133 / 139 40% 2 04.12.2027 -
Duvan Rangel La Equidad Ativo 125 / 136 40% 4 01.12.2027 -
Juan Infante Atlético Tucumán Ativo 119 / 119 40% 2 01.12.2027 -
Ruben van Bommel Ferencvaros Ativo 140 / 138 40% 3 29.11.2027 -
Rhian Brewster Oxford United Ativo 116 / 137 40% 2 29.11.2027 -
Mateusz Bogusz Houston Dynamo Ativo 129 / 119 40% 1 28.11.2027 -
Liam Delap Nottingham Forest Ativo 156 / 144 40% 4 26.11.2027 -
Juan Brunetta FC Copenhagen Ativo 151 / 153 40% 2 25.11.2027 -
Gonzalo Fulham Ativo 157 / 142 40% 1 24.11.2027 -
Harry Wilson Leeds United Ativo 143 / 152 40% 1 22.11.2027 -
Diego García Defensor Sporting Ativo 121 / 106 40% 1 22.11.2027 -
Dwight McNeil Crystal Palace Ativo 146 / 138 40% 1 21.11.2027 -
Gonzalo Plata Rosario Central Ativo 137 / 146 40% 1 17.11.2027 -
Germán Berterame Vélez Ativo 129 / 134 40% 1 17.11.2027 -
Jonathan David Juventus Ativo 156 / 156 40% 3 12.11.2027 -
Thierno Barry Norwich City Ativo 157 / 130 40% 2 12.11.2027 -
Brennan Johnson Stoke City Ativo 140 / 156 40% 1 08.11.2027 -
Mojmír Chytil NK Maribor Ativo 135 / 127 40% 1 06.11.2027 -
Jhonatan Candia Barracas Central Ativo 119 / 129 40% 2 02.11.2027 -
Sasha Marcich Lanús Ativo 120 / 110 40% 2 02.11.2027 -
Hany Mukhtar Spezia Ativo 131 / 141 40% 7 01.11.2027 -
Brian Brobbey Sunderland Ativo 154 / 144 40% 1 31.10.2027 -
César Ibáñez Huracán Ativo 135 / 126 40% 2 28.10.2027 -
Fábio Carvalho Sheffield Wednesday Ativo 135 / 154 40% 1 28.10.2027 -
Largie Ramazani Leeds United Ativo 144 / 143 40% 2 26.10.2027 -
Patson Daka Leicester City Ativo 143 / 118 40% 2 25.10.2027 -
Alexander Díaz Deportivo Riestra Ativo 110 / 108 40% 2 21.10.2027 -
Gabriel Neves Estudiantes Ativo 115 / 115 40% 1 21.10.2027 -
Antonio Galeano Remo Stars Ativo 123 / 132 40% 4 20.10.2027 -
Joe Gelhardt Hull City Ativo 136 / 132 40% 3 14.10.2027 -
Gastón Lodico Racing Club Ativo 134 / 140 40% 2 14.10.2027 -
Jean-Philippe Mateta Crystal Palace Ativo 156 / 144 40% 1 11.10.2027 -
Cameron Archer Southampton Ativo 129 / 138 40% 1 10.10.2027 -
Oleksii Hutsuliak Polissia Ativo 123 / 123 40% 1 10.10.2027 -
Haji Wright Chesterfield Ativo 149 / 147 40% 1 08.10.2027 -
Sebastián Medina Tigre Ativo 137 / 132 40% 2 07.10.2027 -
Ivan Toney Al-Ahli Ativo 166 / 146 40% 1 05.10.2027 -
Noah Okafor Leeds United Ativo 159 / 148 40% 1 05.10.2027 -
Matko Miljevic Racing Club Ativo 134 / 123 40% 1 03.10.2027 -
Pavel Bucha FC Cincinnati Ativo 140 / 120 40% 1 30.09.2027 -
Edwuin Cetré Estudiantes Ativo 141 / 138 40% 1 30.09.2027 -
Joseph Paintsil LA Galaxy Ativo 144 / 126 40% 1 29.09.2027 -
Joaquín Gho Argentinos Juniors Ativo 134 / 135 40% 1 28.09.2027 -
Matías Fernández Independiente Rivadavia Ativo 135 / 106 40% 1 28.09.2027 -
Facundo Altamira Godoy Cruz Ativo 132 / 109 40% 1 25.09.2027 -
Lucas Souto Defensa y Justicia Ativo 129 / 134 40% 2 23.09.2027 -
Anders Dreyer San Diego Football Club Ativo 117 / 128 40% 1 23.09.2027 -
Manuel Duarte Barracas Central Ativo 108 / 129 40% 2 22.09.2027 -
Alejo Cruz Juventud Ativo 137 / 111 40% 2 18.09.2027 -
Ulises Sánchez Gimnasia y Esgrima Ativo 133 / 132 40% 1 18.09.2027 -
Tiago Palacios Estudiantes Ativo 136 / 141 40% 1 12.09.2027 -
Matías Zaracho Racing Club Ativo 116 / 132 40% 1 08.09.2027 -
Vicente Poggi Godoy Cruz Ativo 130 / 136 40% 1 08.09.2027 -
Gonzalo Abrego Godoy Cruz Ativo 115 / 126 40% 1 06.09.2027 -
Gastón Togni Defensa y Justicia Ativo 117 / 130 40% 1 06.09.2027 -
Jayden Danns Wigan Athletic Ativo 121 / 130 40% 1 31.08.2027 -
Imran Oulad Omar Dinamo Batumi Ativo 112 / 113 40% 1 23.08.2027 -
Dany Mota Monza Ativo 123 / 129 40% 2 16.08.2027 -
Nadir Zortea Bologna Ativo 139 / 151 40% 2 10.08.2027 -
Ilario Monterisi Frosinone Ativo 149 / 139 40% 1 10.08.2027 -
Morgan Whittaker Middlesbrough Ativo 138 / 129 40% 2 08.08.2027 -
Tyreece Campbell Charlton Athletic Ativo 135 / 112 40% 1 08.08.2027 -
Aune Heggebø West Bromwich Albion Ativo 129 / 135 40% 2 07.08.2027 -
Aidomo Emakhu Oxford United Ativo 118 / 135 40% 1 07.08.2027 -
Kelly Saravanan Salford City Ativo 122 / 125 40% 1 06.08.2027 -
Will Lankshear Middlesbrough Ativo 128 / 126 40% 3 03.08.2027 -
Toby Collyer West Bromwich Albion Ativo 122 / 145 40% 2 02.08.2027 -
Christian Saydee Wigan Athletic Ativo 109 / 125 40% 1 02.08.2027 -
Iwan Morgan Grimsby Town Ativo 114 / 109 40% 1 02.08.2027 -
Julio Alonso Huesca Ativo 122 / 118 40% 1 02.08.2027 -
Tommy Conway Middlesbrough Ativo 132 / 137 40% 4 31.07.2027 -
Leo Castledine Middlesbrough Perdido 129 / 132 40% 1 31.07.2027 -
Luis Vázquez Birmingham Ativo 122 / 126 40% 1 29.07.2027 -
Evidence Makgopa Orlando Pirates Ativo 112 / 124 40% 1 29.07.2027 -
Zakaria Aboukhlal Torino Ativo 139 / 144 40% 1 28.07.2027 -
Chris Mepham West Bromwich Albion Ativo 140 / 142 40% 1 26.07.2027 -
Shea Charles Southampton Ativo 146 / 149 40% 1 26.07.2027 -
Bojan Radulović Huddersfield Town Ativo 118 / 123 40% 1 25.07.2027 -
Nikola Vlašić Torino Ativo 150 / 138 40% 1 22.07.2027 -
Armando Broja Burnley Ativo 129 / 127 40% 1 20.07.2027 -
Victor Torp Coventry City Ativo 122 / 119 40% 1 19.07.2027 -
Wilson Isidor Sunderland Ativo 133 / 140 40% 1 19.07.2027 -
Isaiah Jones Luton Town Ativo 132 / 131 40% 1 16.07.2027 -
Ryoya Morishita Blackburn Rovers Ativo 118 / 114 40% 1 15.07.2027 -
Bosun Lawal Stoke City Ativo 137 / 131 40% 1 14.07.2027 -
Stanley Mills Oxford United Ativo 115 / 125 40% 1 14.07.2027 -
Lorenzo Di Stefano Torres Ativo 101 / 111 40% 1 14.07.2027 -
Bradley Fink Wycombe Wanderers Ativo 109 / 124 40% 1 14.07.2027 -
Sam Bell Bristol City Ativo 122 / 125 40% 1 12.07.2027 -
Ilyas Ansah Hull City Ativo 134 / 126 40% 1 12.07.2027 -
Derensili Sanches Fernandes Huddersfield Town Ativo 116 / 114 40% 4 10.07.2027 -
Azor Matusiwa Ipswich Town Ativo 141 / 131 40% 1 10.07.2027 -
Callum O'Hare Sheffield United Ativo 146 / 127 40% 2 09.07.2027 -
Santiago Pierotti Lecce Ativo 128 / 122 40% 1 09.07.2027 -
Mandla Erasmus SuperSport United Ativo 130 / 121 40% 4 06.07.2027 -
Ben Sheaf Wrexham Ativo 120 / 130 40% 2 06.07.2027 -
Callum Doyle Wrexham Ativo 140 / 128 40% 1 03.07.2027 -
Josh Tymon Swansea City Ativo 140 / 122 40% 1 02.07.2027 -
Will Smallbone Southampton Ativo 132 / 132 40% 1 01.07.2027 -
Ronnie Edwards Queens Park Rangers Ativo 123 / 121 40% 1 01.07.2027 -
Fedor Lapoukhov CSKA Sofia Ativo 117 / 119 40% 1 30.06.2027 -
Max O'Leary West Bromwich Albion Ativo 133 / 114 40% 1 30.06.2027 -
Edoardo Bove Watford Ativo 135 / 132 40% 1 28.06.2027 -
Milan van Ewijk Mansfield Town Ativo 131 / 141 40% 3 26.06.2027 -
Isaac Price West Bromwich Albion Ativo 122 / 123 40% 1 26.06.2027 -
Kwame Poku Queens Park Rangers Ativo 115 / 117 40% 2 24.06.2027 -
Etiosa Ighodaro Kaizer Chiefs Ativo 122 / 105 40% 1 24.06.2027 -
Caolan Boyd-Munce Wycombe Wanderers Ativo 118 / 128 40% 2 21.06.2027 -
Adam Randell Bristol City Ativo 128 / 125 40% 1 21.06.2027 -
Cristian Shpendi Cesena Ativo 121 / 147 40% 3 18.06.2027 -
Konan N'Dri Lecce Ativo 136 / 124 40% 1 18.06.2027 -
Jack Currie Oxford United Ativo 122 / 134 40% 1 14.06.2027 -
Stanislav Ivanov Arda Ativo 115 / 127 62% 1 04.06.2027 Aprovar
Mustapha Sangaré Levski Ativo 117 / 121 62% 1 01.06.2027 Aprovar
Egil Selvik Watford Ativo 125 / 133 40% 1 01.06.2027 -
Michael Cooper Sheffield United Ativo 121 / 125 40% 2 31.05.2027 -
Radek Vítek Middlesbrough Ativo 134 / 128 40% 1 31.05.2027 -
Riley McGree Middlesbrough Ativo 127 / 131 40% 2 30.05.2027 -
Derry Murkin Derby County Ativo 132 / 124 40% 1 26.05.2027 -
Cristopher Varela Deportivo La Guaira Ativo 110 / 104 40% 2 24.05.2027 -
Scott Twine Bristol City Ativo 131 / 120 40% 1 24.05.2027 -
Tatsuhiro Sakamoto Coventry City Ativo 139 / 124 40% 1 24.05.2027 -
Jason Knight Bristol City Ativo 137 / 143 40% 2 22.05.2027 -
Maduka Okoye Udinese Ativo 151 / 149 40% 1 22.05.2027 -
Othmane Maamma Watford Ativo 120 / 121 40% 2 18.05.2027 -
Lewis Bate Stockport County Ativo 120 / 132 40% 1 18.05.2027 -
Leandro Martins Benfica Ativo 80 / 111 40% 1 17.05.2027 -
Keagan Tau Ajax Cape Town Ativo 87 / 96 40% 1 17.05.2027 -
Callum Brittain Middlesbrough Ativo 136 / 121 40% 1 14.05.2027 -
Sorba Thomas Stoke City Ativo 124 / 138 40% 2 13.05.2027 -
Mamadou Sangaré Brentford Ativo 142 / 131 40% 1 11.05.2027 -
Kasey McAteer Ipswich Town Ativo 132 / 121 40% 1 11.05.2027 -
Aaron Collins Milton Keynes Dons Ativo 126 / 119 40% 1 07.05.2027 -
Darryl Bakola Padova Ativo 116 / 123 40% 1 06.05.2027 -
Percy Jali Free State Stars Ativo 93 / 100 40% 1 06.05.2027 -
Enzo Vázquez Central Norte Ativo 124 / 109 40% 2 05.05.2027 -
Alessio Zerbin Frosinone Ativo 119 / 117 40% 2 03.05.2027 -
Cher Ndour Fiorentina Ativo 130 / 137 40% 1 03.05.2027 -
Daniel Kelly Oxford United Ativo 107 / 109 40% 2 01.05.2027 -
Gaetano Castrovilli Cesena Ativo 132 / 114 40% 2 01.05.2027 -
Jorge Meireles AVS Ativo 115 / 112 40% 2 30.04.2027 -
Younes Ebnoutalib Eintracht Frankfurt Ativo 124 / 122 40% 1 30.04.2027 -
Zaïd BafdilI Sporting CP Ativo 88 / 114 40% 1 28.04.2027 -
Álex Centelles Levski Ativo 133 / 128 40% 7 27.04.2027 Observar
Jofre Torrents Ajax Ativo 120 / 130 40% 2 26.04.2027 -
Nazareno Kihm Ferro Carril Oeste Ativo 105 / 110 40% 1 26.04.2027 -
Kristian Thorstvedt Sassuolo Ativo 128 / 136 40% 2 25.04.2027 -
Jayden Addai Como Ativo 138 / 123 40% 1 25.04.2027 -
Nahuel Galardi Maipú Ativo 120 / 109 40% 1 24.04.2027 -
Matevž Vidovšek Olimpija Ljubljana Ativo 130 / 127 40% 1 24.04.2027 -
Che Adams Torino Ativo 127 / 133 40% 4 23.04.2027 -
Victor Parada Spartak Moscow Ativo 122 / 131 40% 3 20.04.2027 -
Marquinhos Spartak Moscow Ativo 138 / 137 40% 7 19.04.2027 -
Georges-Kévin Nkoudou Al-Diriyah Ativo 145 / 135 40% 2 17.04.2027 -
Mattéo Tramoni Pisa Ativo 142 / 145 40% 1 17.04.2027 -
Sascha Britschgi Padova Ativo 106 / 121 40% 1 15.04.2027 -
Davide Bartesaghi AC Milan Ativo 121 / 123 40% 1 13.04.2027 -
Samuele di Benedetto Bari Ativo 122 / 119 40% 1 13.04.2027 -
John Yeboah Venezia Ativo 124 / 111 40% 1 13.04.2027 -
Eduardo Felicíssimo Sporting CP Ativo 99 / 113 40% 2 11.04.2027 -
Dmitry Pestryakov Dinamo Moscow Ativo 112 / 125 40% 1 11.04.2027 -
Gabriel Strefezza Palermo Ativo 117 / 135 40% 2 09.04.2027 -
Keagan Phiri Platinum Stars Ativo 97 / 102 40% 1 08.04.2027 -
Elia Boseggia Novara Ativo 109 / 127 40% 1 07.04.2027 -
Domenico Berardi Sassuolo Ativo 148 / 143 40% 1 05.04.2027 -
Lameck Banda Lecce Ativo 115 / 140 40% 1 04.04.2027 -
Mohau Nkota Al-Ettifaq Ativo 109 / 117 40% 2 03.04.2027 -
Esequiel Barco Spartak Moscow Ativo 135 / 130 40% 2 01.04.2027 -
Filippo Ranocchia Palermo Ativo 142 / 118 40% 1 01.04.2027 -
Yacine Adli Al-Shabab Ativo 145 / 132 40% 2 30.03.2027 -
Santiago Silva CFR Cluj Ativo 118 / 126 40% 2 30.03.2027 -
Samuele Angori Pisa Ativo 127 / 145 40% 1 30.03.2027 -
George Wickens Lincoln City Ativo 125 / 127 40% 1 30.03.2027 -
Hlompho Lorch Ajax Cape Town Ativo 102 / 104 40% 1 28.03.2027 -
Martim Cunha Porto Ativo 87 / 98 40% 1 28.03.2027 -
Jerónimo Pourtau Talleres Ativo 105 / 124 40% 2 26.03.2027 -
Rubens Dinamo Moscow Ativo 133 / 133 40% 4 25.03.2027 -
Gonçalo Oliveira Benfica Ativo 99 / 124 40% 1 23.03.2027 -
Marko Grujić Levski Ativo 132 / 115 40% 1 18.03.2027 -
Mazire Soula Levski Ativo 110 / 114 40% 1 17.03.2027 Mais informações
José Martínes CSKA 1948 Ativo 111 / 109 40% 1 16.03.2027 -
Anton Miranchuk Dinamo Moscow Ativo 125 / 129 40% 1 16.03.2027 -
Nikita Kokarev Zenit Ativo 115 / 124 40% 3 13.03.2027 -
Sol Brynn Krasnodar Ativo 131 / 123 40% 1 13.03.2027 -
Ilja Vakhania Krasnodar Ativo 126 / 116 40% 2 09.03.2027 -
Alexandr Siljanov Lokomotiv Moscow Ativo 132 / 123 40% 1 09.03.2027 -
Siaka Diaby Stade Malien Ativo 107 / 91 40% 1 28.02.2027 -
Ander Astralaga Real Sociedad Ativo 130 / 123 40% 1 26.02.2027 -
Bradley Mabunda SuperSport United Ativo 115 / 112 40% 2 25.02.2027 -
Williams Manyama SuperSport United Ativo 121 / 124 40% 1 23.02.2027 -
Alexandr Koryakin Krasnodar Ativo 116 / 105 40% 1 19.02.2027 -
Bento Al-Nassr Ativo 141 / 128 40% 1 19.02.2027 -
Matevž Dajčar Olimpija Ljubljana Ativo 115 / 102 40% 1 18.02.2027 -
Aldo Pérez Guarani Ativo 126 / 121 40% 2 16.02.2027 -
Felipe San Juan Gimnasia y Esgrima Ativo 102 / 100 40% 1 16.02.2027 -
Santiago Roggero Gimnasia y Esgrima Ativo 117 / 106 40% 1 14.02.2027 -
Richard Ludha MFK Skalica Ativo 106 / 106 40% 1 09.02.2027 -
Tomás Durso Atlético Tucumán Ativo 110 / 116 40% 1 04.02.2027 -
Maksim Samorodov Akhmat Grozny Ativo 120 / 115 40% 1 04.02.2027 -
Manfred Ugalde Spartak Moscow Ativo 124 / 133 40% 1 03.02.2027 -
Oswin Appollis Orlando Pirates Ativo 116 / 128 40% 3 27.12.2026 -
Juan Giménez Celta Ativo 110 / 111 40% 1 27.12.2026 -
Gonçalo Nogueira Vitoria Guimaraes Ativo 125 / 116 40% 1 27.12.2026 -
Femi Seriki Sheffield United Ativo 129 / 118 40% 2 26.12.2026 -
Denzel Jubitana Neftchi Ativo 128 / 126 40% 1 21.12.2026 -
Suleiman Camara Slovan Bratislava Ativo 121 / 124 40% 1 19.12.2026 -
Bongani Modiba Black Aces Ativo 111 / 115 40% 1 09.12.2026 -
Marcelo Allende Mamelodi Sundowns Ativo 126 / 122 40% 1 30.11.2026 -
Crysencio Summerville Al-Hilal Ativo 137 / 133 40% 2 18.11.2026 -
Christos Mouzakitis Hull City Ativo 137 / 129 40% 1 04.11.2026 -
Rahim Ibrahim Slovan Bratislava Ativo 131 / 131 40% 2 01.11.2026 -
James Eto'o CSKA Sofia Ativo 116 / 127 40% 3 29.10.2026 -
Andrei Cordea CFR Cluj Ativo 112 / 122 40% 1 22.10.2026 -
Pastor CSKA Sofia Ativo 115 / 110 40% 1 12.10.2026 -
Anderson Arroyo Rubin Ativo 125 / 119 40% 1 05.10.2026 -
Ramiro Ruiz Rodríguez Atlético Tucumán Ativo 130 / 119 40% 2 29.09.2026 -
Costinha Brighton Ativo 110 / 123 40% 1 24.09.2026 -
João Gomes Aston Villa Ativo 154 / 139 40% 1 21.09.2026 -
Matthias Seidl Rapid Wien Ativo 115 / 137 40% 1 20.09.2026 -
Eduard Spertsyan Al-Ahli Ativo 130 / 148 40% 1 17.09.2026 -
Fernando Costanza Krylya Sovetov Ativo 122 / 130 40% 2 15.09.2026 -
Mariano Bracamonte Deportivo Riestra Ativo 103 / 129 40% 1 13.09.2026 -
Samú Al-Nassr Ativo 129 / 135 40% 1 10.09.2026 -
Svit Sešlar NK Celje Ativo 129 / 125 40% 1 07.09.2026 -
Jack Fletcher Manchester United Ativo 116 / 106 40% 1 06.09.2026 -
João Simões Sporting CP Ativo 126 / 121 40% 1 05.09.2026 -
Iker Córdoba Valencia Ativo 98 / 107 40% 1 05.09.2026 -
Miodrag Pivaš Bristol City Ativo 114 / 122 40% 1 04.09.2026 -
Felipe Obradovich Ferro Carril Oeste Ativo 103 / 130 40% 1 03.09.2026 -
Nejc Viher NK Maribor Ativo 107 / 116 40% 1 01.09.2026 -
Ignacio Ovando Rosario Central Ativo 88 / 121 40% 1 18.08.2026 -
Joel Godoy Sarmiento Ativo 118 / 104 40% 1 18.08.2026 -
Parvizjon Umarbaev Lokomotiv Plovdiv Ativo 117 / 106 58% 1 03.08.2026 -